Time,TemperatureF,DewpointF,PressureIn,WindDirection,WindDirectionDegrees,WindSpeedMPH,WindSpeedGustMPH,Humidity,HourlyPrecipIn,Conditions,Clouds,dailyrainin,SoftwareType,DateUTC
2017-07-23 00:08:00,60.5,59.0,29.76,NW,325,1.0,2.0,94,0.00,,,0.00,weatherlink.com 1.10,2017-07-23 04:08:00,
2017-07-23 00:23:00,60.5,59.0,29.76,NW,325,0.0,0.0,93,0.00,,,0.00,weatherlink.com 1.10,2017-07-23 04:23:00,
2017-07-23 00:38:00,60.2,58.0,29.77,NW,325,0.0,0.0,93,0.00,,,0.00,weatherlink.com 1.10,2017-07-23 04:38:00,
2017-07-23 00:53:00,60.0,58.0,29.76,NW,325,0.0,1.0,94,0.00,,,0.00,weatherlink.com 1.10,2017-07-23 04:53:00,
2017-07-23 01:08:00,59.8,58.0,29.76,NW,325,0.0,0.0,94,0.00,,,0.00,weatherlink.com 1.10,2017-07-23 05:08:00,
2017-07-23 01:23:00,59.6,58.0,29.77,NW,325,0.0,1.0,94,0.00,,,0.00,weatherlink.com 1.10,2017-07-23 05:23:00,
2017-07-23 01:38:00,59.6,58.0,29.76,NW,325,0.0,0.0,95,0.00,,,0.00,weatherlink.com 1.10,2017-07-23 05:38:00,
2017-07-23 01:53:00,59.8,58.0,29.76,NW,325,1.0,1.0,95,0.00,,,0.00,weatherlink.com 1.10,2017-07-23 05:53:00,
2017-07-23 02:08:00,60.0,58.0,29.77,NW,325,1.0,2.0,94,0.00,,,0.00,weatherlink.com 1.10,2017-07-23 06:08:00,
2017-07-23 02:23:00,59.9,58.0,29.76,NW,326,0.0,2.0,94,0.00,,,0.00,weatherlink.com 1.10,2017-07-23 06:23:00,
2017-07-23 02:38:00,59.9,58.0,29.76,NNW,329,1.0,2.0,93,0.00,,,0.00,weatherlink.com 1.10,2017-07-23 06:38:00,
2017-07-23 02:53:00,59.8,58.0,29.76,NNW,340,0.0,2.0,93,0.00,,,0.00,weatherlink.com 1.10,2017-07-23 06:53:00,
2017-07-23 03:08:00,59.7,58.0,29.75,NW,311,1.0,3.0,93,0.00,,,0.00,weatherlink.com 1.10,2017-07-23 07:08:00,
2017-07-23 03:23:00,59.6,58.0,29.76,NNW,333,1.0,4.0,93,0.00,,,0.00,weatherlink.com 1.10,2017-07-23 07:23:00,
2017-07-23 03:38:00,59.2,57.0,29.75,NW,315,0.0,1.0,92,0.00,,,0.00,weatherlink.com 1.10,2017-07-23 07:38:00,
2017-07-23 03:53:00,59.0,57.0,29.75,NNW,327,0.0,3.0,92,0.00,,,0.00,weatherlink.com 1.10,2017-07-23 07:53:00,
2017-07-23 04:08:00,58.6,56.0,29.76,North,355,1.0,2.0,92,0.00,,,0.00,weatherlink.com 1.10,2017-07-23 08:08:00,
2017-07-23 04:23:00,58.4,56.0,29.76,NNE,22,1.0,1.0,92,0.00,,,0.00,weatherlink.com 1.10,2017-07-23 08:23:00,
2017-07-23 04:38:00,58.1,56.0,29.76,NNE,22,1.0,2.0,92,0.00,,,0.00,weatherlink.com 1.10,2017-07-23 08:38:00,
2017-07-23 04:53:00,58.2,56.0,29.75,NNE,23,0.0,2.0,93,0.00,,,0.00,weatherlink.com 1.10,2017-07-23 08:53:00,
2017-07-23 05:08:00,58.6,57.0,29.75,NNE,22,1.0,3.0,93,0.00,,,0.00,weatherlink.com 1.10,2017-07-23 09:08:00,
2017-07-23 05:23:00,58.8,57.0,29.75,NW,325,0.0,2.0,93,0.00,,,0.00,weatherlink.com 1.10,2017-07-23 09:23:00,
2017-07-23 05:38:00,59.0,57.0,29.75,NW,323,0.0,2.0,93,0.00,,,0.00,weatherlink.com 1.10,2017-07-23 09:38:00,
2017-07-23 05:53:00,59.1,57.0,29.75,NW,322,1.0,2.0,92,0.00,,,0.00,weatherlink.com 1.10,2017-07-23 09:53:00,
2017-07-23 06:08:00,59.1,57.0,29.75,NNW,331,0.0,2.0,93,0.00,,,0.00,weatherlink.com 1.10,2017-07-23 10:08:00,
2017-07-23 06:23:00,59.3,57.0,29.75,NNW,333,0.0,1.0,93,0.00,,,0.00,weatherlink.com 1.10,2017-07-23 10:23:00,
2017-07-23 06:38:00,59.5,58.0,29.75,NNW,333,0.0,2.0,93,0.00,,,0.00,weatherlink.com 1.10,2017-07-23 10:38:00,
2017-07-23 06:53:00,59.5,58.0,29.76,NNW,333,0.0,1.0,93,0.00,,,0.00,weatherlink.com 1.10,2017-07-23 10:53:00,
2017-07-23 07:08:00,59.5,57.0,29.76,ENE,70,0.0,3.0,92,0.00,,,0.00,weatherlink.com 1.10,2017-07-23 11:08:00,
2017-07-23 07:23:00,59.3,57.0,29.77,NNE,32,0.0,2.0,92,0.00,,,0.00,weatherlink.com 1.10,2017-07-23 11:23:00,
2017-07-23 07:38:00,59.1,57.0,29.77,West,279,1.0,2.0,93,0.00,,,0.00,weatherlink.com 1.10,2017-07-23 11:38:00,
2017-07-23 07:53:00,58.8,57.0,29.77,SW,218,2.0,2.0,93,0.00,,,0.00,weatherlink.com 1.10,2017-07-23 11:53:00,
2017-07-23 08:08:00,58.5,57.0,29.77,NW,306,1.0,3.0,94,0.00,,,0.00,weatherlink.com 1.10,2017-07-23 12:08:00,
2017-07-23 08:23:00,58.4,57.0,29.78,NW,316,2.0,2.0,95,0.00,,,0.00,weatherlink.com 1.10,2017-07-23 12:23:00,
2017-07-23 08:38:00,58.5,57.0,29.79,NNW,330,0.0,2.0,95,0.00,,,0.00,weatherlink.com 1.10,2017-07-23 12:38:00,
2017-07-23 08:53:00,58.6,57.0,29.80,NNW,328,1.0,2.0,95,0.00,,,0.00,weatherlink.com 1.10,2017-07-23 12:53:00,
2017-07-23 09:08:00,58.5,57.0,29.80,North,355,1.0,3.0,95,0.00,,,0.00,weatherlink.com 1.10,2017-07-23 13:08:00,
2017-07-23 09:23:00,58.6,57.0,29.81,NNW,344,1.0,2.0,95,0.00,,,0.00,weatherlink.com 1.10,2017-07-23 13:23:00,
2017-07-23 09:38:00,58.4,57.0,29.81,WNW,284,1.0,2.0,95,0.00,,,0.00,weatherlink.com 1.10,2017-07-23 13:38:00,
2017-07-23 09:53:00,58.1,57.0,29.82,WNW,302,1.0,2.0,95,0.01,,,0.01,weatherlink.com 1.10,2017-07-23 13:53:00,
2017-07-23 10:08:00,57.7,56.0,29.82,North,350,0.0,2.0,95,0.01,,,0.01,weatherlink.com 1.10,2017-07-23 14:08:00,
2017-07-23 10:23:00,57.6,56.0,29.82,WNW,288,0.0,5.0,95,0.01,,,0.01,weatherlink.com 1.10,2017-07-23 14:23:00,
2017-07-23 10:38:00,57.7,56.0,29.81,NNE,30,0.0,2.0,95,0.01,,,0.01,weatherlink.com 1.10,2017-07-23 14:38:00,
2017-07-23 10:54:00,57.4,56.0,29.82,WNW,290,1.0,5.0,94,0.00,,,0.01,weatherlink.com 1.10,2017-07-23 14:54:00,
2017-07-23 11:09:00,57.1,56.0,29.82,West,273,1.0,3.0,95,0.00,,,0.01,weatherlink.com 1.10,2017-07-23 15:09:00,
2017-07-23 11:24:00,57.0,56.0,29.83,WNW,288,1.0,2.0,95,0.00,,,0.01,weatherlink.com 1.10,2017-07-23 15:24:00,
2017-07-23 11:39:00,56.9,56.0,29.84,North,5,0.0,3.0,95,0.00,,,0.01,weatherlink.com 1.10,2017-07-23 15:39:00,
2017-07-23 11:54:00,56.9,56.0,29.84,NNE,17,2.0,6.0,95,0.00,,,0.01,weatherlink.com 1.10,2017-07-23 15:54:00,
2017-07-23 12:09:00,57.2,56.0,29.85,NNW,337,0.0,4.0,96,0.00,,,0.01,weatherlink.com 1.10,2017-07-23 16:09:00,
2017-07-23 12:24:00,57.5,56.0,29.86,North,355,2.0,4.0,95,0.00,,,0.01,weatherlink.com 1.10,2017-07-23 16:24:00,
2017-07-23 12:39:00,57.8,56.0,29.86,North,355,5.0,7.0,94,0.00,,,0.01,weatherlink.com 1.10,2017-07-23 16:39:00,
2017-07-23 12:54:00,57.8,56.0,29.87,NW,325,6.0,6.0,95,0.00,,,0.01,weatherlink.com 1.10,2017-07-23 16:54:00,
2017-07-23 13:09:00,58.0,56.0,29.87,ENE,61,0.0,4.0,94,0.00,,,0.01,weatherlink.com 1.10,2017-07-23 17:09:00,
2017-07-23 13:24:00,58.0,56.0,29.88,ENE,66,1.0,6.0,93,0.00,,,0.01,weatherlink.com 1.10,2017-07-23 17:24:00,
2017-07-23 13:39:00,57.9,56.0,29.88,NNE,32,0.0,4.0,93,0.00,,,0.01,weatherlink.com 1.10,2017-07-23 17:39:00,
2017-07-23 13:54:00,57.8,55.0,29.89,NE,45,2.0,9.0,91,0.00,,,0.01,weatherlink.com 1.10,2017-07-23 17:54:00,
2017-07-23 14:09:00,57.7,55.0,29.90,NNE,13,0.0,8.0,92,0.00,,,0.01,weatherlink.com 1.10,2017-07-23 18:09:00,
2017-07-23 14:24:00,57.7,55.0,29.91,ENE,78,1.0,3.0,91,0.00,,,0.01,weatherlink.com 1.10,2017-07-23 18:24:00,
2017-07-23 14:39:00,57.7,55.0,29.91,ENE,74,0.0,3.0,92,0.00,,,0.01,weatherlink.com 1.10,2017-07-23 18:39:00,
2017-07-23 14:54:00,57.7,55.0,29.91,NE,52,0.0,6.0,90,0.00,,,0.01,weatherlink.com 1.10,2017-07-23 18:54:00,
2017-07-23 15:09:00,57.4,54.0,29.91,NNE,32,2.0,5.0,89,0.00,,,0.01,weatherlink.com 1.10,2017-07-23 19:09:00,
2017-07-23 15:24:00,57.1,54.0,29.92,NNE,31,0.0,5.0,89,0.00,,,0.01,weatherlink.com 1.10,2017-07-23 19:24:00,
2017-07-23 15:39:00,57.2,54.0,29.92,NE,49,0.0,7.0,90,0.00,,,0.01,weatherlink.com 1.10,2017-07-23 19:39:00,
2017-07-23 15:54:00,57.2,55.0,29.93,NW,305,1.0,2.0,91,0.00,,,0.01,weatherlink.com 1.10,2017-07-23 19:54:00,
2017-07-23 16:09:00,56.9,54.0,29.93,NE,47,1.0,4.0,91,0.00,,,0.01,weatherlink.com 1.10,2017-07-23 20:09:00,
2017-07-23 16:24:00,56.9,54.0,29.93,NNE,27,0.0,1.0,91,0.00,,,0.01,weatherlink.com 1.10,2017-07-23 20:24:00,
2017-07-23 16:39:00,57.0,54.0,29.94,North,355,1.0,2.0,90,0.00,,,0.01,weatherlink.com 1.10,2017-07-23 20:39:00,
2017-07-23 16:54:00,57.3,55.0,29.94,NW,326,0.0,2.0,90,0.00,,,0.01,weatherlink.com 1.10,2017-07-23 20:54:00,
2017-07-23 17:09:00,57.9,55.0,29.94,NW,326,0.0,1.0,91,0.00,,,0.01,weatherlink.com 1.10,2017-07-23 21:09:00,
2017-07-23 17:24:00,58.5,56.0,29.94,NW,326,0.0,2.0,90,0.00,,,0.01,weatherlink.com 1.10,2017-07-23 21:24:00,
2017-07-23 17:39:00,58.7,55.0,29.95,North,9,0.0,2.0,87,0.00,,,0.01,weatherlink.com 1.10,2017-07-23 21:39:00,
2017-07-23 17:54:00,59.0,55.0,29.96,NNE,15,0.0,1.0,87,0.00,,,0.01,weatherlink.com 1.10,2017-07-23 21:54:00,
2017-07-23 18:09:00,59.6,56.0,29.96,NW,325,0.0,2.0,86,0.00,,,0.01,weatherlink.com 1.10,2017-07-23 22:09:00,
2017-07-23 18:25:00,60.3,56.0,29.96,NW,324,1.0,2.0,86,0.00,,,0.01,weatherlink.com 1.10,2017-07-23 22:25:00,
2017-07-23 18:39:00,60.4,55.0,29.96,ENE,59,2.0,4.0,83,0.00,,,0.01,weatherlink.com 1.10,2017-07-23 22:39:00,
2017-07-23 18:54:00,60.2,56.0,29.96,NE,48,0.0,2.0,86,0.00,,,0.01,weatherlink.com 1.10,2017-07-23 22:54:00,
2017-07-23 19:09:00,60.1,55.0,29.96,West,280,0.0,3.0,84,0.00,,,0.01,weatherlink.com 1.10,2017-07-23 23:09:00,
2017-07-23 19:24:00,59.8,55.0,29.97,NNE,25,0.0,5.0,84,0.00,,,0.01,weatherlink.com 1.10,2017-07-23 23:24:00,
2017-07-23 19:39:00,59.7,55.0,29.97,North,355,1.0,2.0,83,0.00,,,0.01,weatherlink.com 1.10,2017-07-23 23:39:00,
2017-07-23 19:54:00,59.6,54.0,29.97,North,355,0.0,1.0,83,0.00,,,0.01,weatherlink.com 1.10,2017-07-23 23:54:00,
2017-07-23 20:09:00,59.4,55.0,29.98,WNW,290,1.0,3.0,86,0.00,,,0.01,weatherlink.com 1.10,2017-07-24 00:09:00,
2017-07-23 20:24:00,59.1,55.0,29.98,NNW,343,0.0,3.0,86,0.00,,,0.01,weatherlink.com 1.10,2017-07-24 00:24:00,
2017-07-23 20:40:00,59.2,55.0,29.98,NE,36,0.0,2.0,86,0.00,,,0.01,weatherlink.com 1.10,2017-07-24 00:40:00,